Temperature
19 19 19 19 19 18 18 18 18 18 18 18 17 17 17 17 17 17 17 17 17 17 17 17 17 17 17 17 16 16 16 16 17 16 16 16 16 15 15 15 15 15 15
19 19 19 19 19 18 18 18 18 18 18 18 17 17 17 17 17 17 17 17 17 16 16 16 16 16 17 16 16 16 16 16 16 16 16 16 15 15 15 15 15 15 15
19 19 19 19 19 18 18 18 18 18 18 17 17 17 17 17 17 17 17 17 16 16 16 16 16 16 16 16 16 16 16 16 16 16 16 16 15 15 15 15 15 15 15
19 19 19 19 18 18 18 18 18 18 18 17 17 17 17 17 17 17 16 16 16 16 16 16 16 16 16 16 16 16 16 16 16 16 16 16 15 15 15 15 15 15 15
19 19 19 18 18 18 18 18 18 17 17 17 17 17 17 17 16 16 16 16 16 16 16 16 16 16 16 16 16 16 15 15 16 16 16 16 15 15 15 15 15 15 15
19 19 19 18 18 18 18 18 17 17 17 17 17 17 17 17 17 17 16 16 16 16 16 16 16 16 16 16 16 16 16 15 15 15 16 15 15 15 15 15 15 15 15
19 19 18 18 18 18 18 17 17 17 17 17 17 17 17 17 17 17 17 16 16 16 16 16 16 16 16 16 16 16 15 15 15 15 15 15 15 14 14 14 14 14 14
19 18 18 18 17 17 17 17 17 17 17 17 17 17 17 17 17 17 17 16 16 16 16 15 15 15 15 15 15 15 15 15 15 15 15 15 14 14 14 14 14 14 14
18 18 18 18 17 17 17 17 17 17 17 16 16 16 16 17 17 17 17 16 16 16 16 15 15 15 15 15 15 15 15 15 15 15 15 15 15 15 14 14 14 14 14
18 18 18 18 17 17 17 17 16 16 16 16 16 16 16 16 16 16 16 16 16 15 16 15 16 15 15 15 15 15 14 15 14 15 14 14 14 14 14 14 14 14 14
18 18 18 17 17 17 16 16 16 16 16 15 16 16 15 16 16 16 16 15 15 15 15 15 15 15 15 15 15 15 15 15 14 14 14 14 14 14 14 14 14 14 13
18 18 17 17 17 17 16 16 16 15 15 16 16 16 16 16 16 16 16 16 15 15 15 15 15 15 15 15 15 15 15 14 14 14 14 14 14 14 14 13 14 13 13
17 17 17 17 17 16 16 16 16 16 16 16 16 16 16 16 16 16 16 16 16 15 15 15 15 15 15 15 14 14 14 14 14 14 14 14 14 14 14 13 13 13 13
17 17 17 17 16 16 16 16 16 16 16 16 16 16 16 16 15 15 15 15 15 15 15 15 15 15 14 14 14 14 14 13 13 14 14 14 14 13 13 13 13 13 13
16 16 16 16 16 16 16 16 16 16 16 16 16 16 16 16 15 15 15 15 15 14 14 14 14 14 14 14 14 14 13 13 13 13 13 13 13 13 13 13 13 12 12
16 16 16 16 16 16 16 16 16 16 16 16 15 15 15 15 15 15 15 15 15 14 14 14 14 14 14 14 14 14 13 13 13 13 13 13 13 13 13 12 12 12 12
15 15 15 15 15 16 16 16 15 16 16 16 16 15 15 15 15 15 15 14 14 14 14 14 14 14 14 14 14 14 13 13 13 13 12 12 12 12 12 12 12 12 12
15 15 15 15 15 15 15 15 15 15 15 15 15 15 15 15 15 15 14 14 14 14 14 14 14 14 14 13 13 13 13 13 13 12 12 12 12 12 12 12 12 11 12
15 15 15 15 15 15 15 15 15 15 15 15 15 15 15 14 14 14 14 14 14 14 14 14 14 13 13 13 13 13 13 13 12 12 12 12 11 11 11 11 11 11 11
14 15 15 14 14 14 14 15 15 15 14 15 15 15 14 14 14 14 14 14 13 13 13 13 13 13 13 13 13 12 12 12 12 12 12 11 11 11 11 11 11 11 11
14 14 14 14 14 14 14 14 14 14 14 14 14 14 14 14 14 14 14 14 13 13 13 13 13 13 13 13 12 12 12 12 11 11 11 11 11 11 11 11 11 11 11
13 14 14 14 14 14 14 14 14 14 14 14 14 13 13 13 13 13 13 13 13 13 13 13 13 12 12 12 12 12 12 11 11 11 11 11 11 11 11 11 11 10 10
13 13 14 14 14 14 13 13 14 14 14 13 13 13 13 13 13 13 13 13 13 13 12 12 12 12 12 12 12 11 11 11 11 11 11 11 10 10 10 10 10 10 10
13 13 13 14 13 14 14 14 13 13 13 13 13 13 13 13 13 12 12 12 12 12 12 11 11 11 11 11 11 11 11 11 11 10 10 10 10 10 10 10 10 10 10
13 13 13 13 13 13 13 13 13 13 13 13 13 13 13 13 12 12 12 12 11 11 11 11 11 11 11 11 10 10 10 10 10 10 10 10 9 9 9 10 9 9 9
12 13 13 13 13 13 13 13 13 13 12 12 12 12 12 12 12 11 11 11 11 11 11 11 11 10 10 10 10 10 10 10 10 10 10 9 9 9 9 9 9 9 9
Wind_Speed
5 5 4 4 4 4 4 4 3 3 3 3 3 2 2 2 2 2 2 3 3 2 2 2 2 1 2 2 2 2 2 2 2 1 1 2 2 2 2 3 5 5 6
5 5 5 5 4 4 4 4 3 3 3 3 3 3 3 3 3 3 3 3 3 3 2 2 2 2 2 2 2 2 1 2 2 2 1 2 3 2 2 3 3 4 4
6 6 5 5 5 4 4 4 3 3 3 3 3 3 3 3 3 3 3 3 3 3 3 3 3 2 3 2 3 2 2 2 2 3 2 1 2 2 2 3 3 2 4
6 6 5 5 5 5 4 4 4 3 3 3 3 3 3 3 3 4 4 3 3 3 3 3 3 3 3 3 3 3 2 2 2 3 3 3 2 2 3 3 3 3 3
6 6 5 5 5 5 5 4 4 4 4 4 3 3 4 4 3 3 4 4 4 4 3 3 3 1 1 2 2 2 3 3 3 3 3 3 3 2 3 3 3 3 3
6 6 5 5 5 5 4 4 4 4 3 4 4 4 4 3 3 1 3 3 4 4 4 4 4 4 3 3 2 2 3 4 4 4 4 3 3 4 3 4 3 3 3
6 6 6 6 5 5 5 4 4 4 4 4 4 4 3 2 3 3 3 4 4 4 4 4 4 3 4 4 5 6 4 4 4 6 5 5 4 4 4 5 4 5 4
7 7 7 6 6 6 5 5 5 4 4 4 4 4 3 3 5 5 5 6 5 4 5 5 5 4 4 4 5 4 5 5 6 6 5 5 4 4 5 6 5 6 5
8 8 7 7 7 6 6 5 5 4 4 4 4 4 4 4 6 6 6 5 5 6 6 5 6 6 3 4 6 5 5 5 5 5 4 4 3 4 5 5 5 5 5
7 8 8 8 7 7 6 5 5 4 5 5 5 5 5 5 6 7 7 6 5 6 6 6 5 6 4 5 6 6 7 6 5 5 6 7 7 8 8 8 7 6 5
6 7 8 8 8 7 6 5 5 5 5 5 5 5 6 5 6 7 7 6 6 6 6 6 5 7 6 7 8 7 6 6 6 6 6 6 6 5 6 6 6 6 6
6 7 7 8 7 7 6 6 6 6 6 6 6 6 5 5 5 6 7 7 7 6 6 5 3 6 7 8 7 6 5 7 7 6 6 6 5 5 5 5 5 6 5
6 7 7 7 7 7 7 7 7 7 7 6 6 6 5 4 5 7 8 8 8 7 6 3 2 4 7 7 9 8 7 7 7 7 7 6 5 4 4 4 5 5 6
6 6 7 7 7 7 7 7 7 7 7 6 6 6 6 5 5 4 5 6 7 7 6 4 6 7 8 7 6 7 7 7 7 7 7 6 5 5 5 5 5 5 5
5 6 6 7 7 7 7 6 7 6 6 6 6 6 6 6 4 4 5 5 5 4 4 5 5 5 6 6 6 6 7 7 7 7 7 6 6 6 5 5 5 5 5
4 5 5 5 5 6 6 6 4 6 5 6 6 7 6 4 2 4 5 5 3 3 5 6 6 6 7 6 7 7 7 7 6 6 7 7 7 6 6 5 5 5 6
4 4 4 5 6 6 6 6 6 5 6 8 8 8 9 7 5 6 7 6 5 6 6 8 7 7 7 7 7 7 7 6 6 6 6 6 6 6 6 5 5 5 6
5 5 5 5 6 6 6 6 6 6 5 6 7 10 11 10 9 8 6 4 4 6 8 8 8 7 7 7 7 7 6 5 5 5 5 6 6 6 6 6 5 6 6
5 4 5 5 6 6 6 6 6 7 6 6 5 5 8 9 9 9 8 6 7 7 8 8 8 7 7 7 6 6 6 5 5 5 5 5 5 6 6 6 6 5 6
5 5 6 6 6 6 6 6 7 7 7 6 6 5 4 5 5 6 7 8 8 8 8 8 7 7 6 6 6 6 6 6 6 6 6 6 6 6 6 6 6 6 5
6 5 6 7 7 6 6 7 7 7 6 6 6 5 5 6 7 7 7 8 8 8 8 7 7 7 7 6 6 7 7 7 7 7 7 6 6 6 6 6 6 6 6
6 6 6 6 6 6 6 6 7 7 7 7 6 6 8 8 8 7 7 7 8 7 7 6 6 6 5 5 6 6 6 7 7 7 7 6 6 6 7 7 6 6 6
7 8 7 7 6 6 7 7 7 7 7 7 7 6 6 7 7 7 7 7 6 6 6 6 6 6 5 5 5 6 6 7 7 7 7 7 7 7 6 7 7 7 7
8 8 8 7 7 7 7 6 7 7 7 7 7 7 7 6 7 7 6 6 6 6 5 5 5 7 7 6 5 6 5 6 6 7 8 8 7 7 7 7 8 8 8
7 7 7 7 7 7 6 6 6 6 6 6 6 6 6 6 6 5 5 5 6 5 6 6 5 6 7 7 6 5 3 3 5 6 6 7 8 8 8 8 8 8 8
6 6 6 6 6 6 6 6 6 5 5 5 5 5 5 5 5 5 4 4 5 5 5 5 5 5 6 5 5 4 2 3 5 6 8 8 8 8 8 7 9 8 8
Wind_Direction
197 197 198 190 189 187 186 185 180 183 186 194 190 184 192 197 195 195 192 175 182 184 209 202 214 240 236 226 232 242 251 263 248 212 175 147 190 254 190 218 214 212 190
190 188 191 186 186 186 182 174 174 177 181 178 182 186 204 203 200 197 200 189 188 190 206 206 208 203 209 237 235 238 240 249 244 246 227 198 203 225 232 245 235 222 215
183 182 180 182 182 185 179 173 170 172 178 180 184 188 203 211 209 202 202 201 195 196 202 208 208 207 217 220 238 233 232 227 230 236 234 211 212 208 227 234 233 237 240
182 180 176 181 187 185 177 172 173 178 181 185 191 193 198 207 212 211 205 200 200 202 205 211 209 210 218 230 228 229 234 235 222 239 237 219 209 209 237 245 237 218 242
178 181 180 181 181 180 177 176 176 184 192 193 200 204 202 206 213 212 210 198 199 208 211 214 213 183 6 283 265 236 227 236 233 234 238 230 226 228 246 254 260 264 230
183 183 177 177 178 179 176 175 180 192 204 201 210 211 215 219 119 162 238 206 204 209 214 216 211 197 195 203 279 298 279 249 254 255 250 252 252 251 261 265 265 269 269
185 185 181 183 186 187 185 180 188 199 205 204 208 213 222 193 149 182 234 225 222 220 217 224 234 214 208 223 215 216 235 253 263 261 264 266 261 260 264 259 260 267 276
186 185 186 187 190 191 191 195 197 202 209 212 214 219 223 205 178 196 223 223 229 228 229 229 234 239 236 241 239 232 233 230 231 238 249 258 267 269 259 260 261 254 253
192 190 191 194 196 199 198 202 209 210 215 216 217 220 224 214 192 198 222 223 223 229 233 235 239 237 218 238 241 242 247 245 221 213 235 254 278 268 263 256 252 254 260
200 197 194 197 200 205 204 204 210 216 221 223 219 224 227 227 194 196 220 234 233 233 226 227 227 238 221 219 237 242 243 246 248 225 219 229 236 232 227 243 255 258 263
202 200 197 198 202 207 206 205 209 218 225 230 227 229 230 229 201 198 216 241 245 244 238 231 219 186 210 223 243 248 252 258 250 244 237 234 231 232 227 229 249 260 264
202 203 202 202 208 203 203 206 211 218 221 226 227 233 230 220 210 198 208 235 270 255 254 253 226 174 206 221 232 245 249 253 249 248 249 247 246 244 239 234 236 251 265
204 207 206 204 208 209 207 208 213 217 228 231 232 236 234 226 202 188 206 221 239 251 261 290 284 208 214 223 222 226 230 241 248 250 252 253 253 254 248 235 231 234 244
212 214 213 209 208 206 215 218 221 224 228 232 235 239 239 228 230 215 217 217 218 236 253 234 217 222 233 241 225 220 233 245 250 253 258 260 257 247 239 240 240 237 245
219 220 219 215 211 209 216 224 228 228 234 240 245 244 242 241 229 213 234 238 236 230 242 243 236 232 233 234 236 235 236 236 240 249 256 257 253 249 247 244 247 253 254
225 228 229 225 216 219 217 220 228 227 205 214 241 256 251 257 217 209 234 251 252 224 239 246 244 241 241 241 238 234 234 237 240 243 247 252 255 253 249 247 245 249 254
242 241 241 242 239 234 229 229 229 224 214 213 219 228 238 241 226 224 231 234 222 201 232 245 246 247 248 247 246 244 240 235 237 243 247 252 256 257 251 244 243 250 254
247 239 238 238 243 245 241 239 238 239 239 241 226 219 221 219 218 218 211 201 224 217 239 247 249 247 246 249 249 249 246 236 228 236 242 250 254 257 256 251 246 248 251
259 248 244 245 244 245 244 241 241 241 243 249 253 225 211 209 208 209 194 221 240 239 241 246 249 250 249 246 247 247 244 240 237 234 236 241 248 251 254 256 254 245 253
256 246 247 250 245 242 239 240 242 241 242 246 249 250 224 212 225 215 211 228 241 246 247 248 248 250 251 250 244 241 241 243 242 242 242 241 245 248 250 252 256 250 245
264 251 230 243 248 247 244 242 244 248 247 248 250 245 233 239 241 236 231 232 237 244 246 247 247 246 243 241 243 242 244 245 244 244 244 244 245 245 249 248 249 252 252
264 260 255 251 251 251 251 251 251 250 248 249 254 239 215 236 246 247 244 242 241 242 244 244 247 246 244 242 241 243 244 247 247 247 246 244 244 247 249 250 250 254 255
263 262 259 256 253 243 246 250 250 252 252 249 251 253 239 243 250 250 250 251 248 247 247 245 246 247 245 245 246 245 246 248 249 251 251 250 250 249 249 251 251 252 251
264 261 260 256 255 252 252 255 253 253 253 253 253 251 248 245 250 252 252 252 247 249 250 248 249 249 246 245 246 250 260 267 263 255 249 250 250 250 249 249 251 248 247
265 266 266 261 258 258 258 259 261 262 263 260 258 256 255 253 252 252 250 250 252 251 248 245 248 250 247 246 250 257 268 273 273 275 256 249 249 249 251 251 251 253 251
262 263 265 267 265 265 264 263 264 264 265 267 265 262 261 259 256 255 252 252 253 253 254 252 251 251 253 252 256 263 251 248 252 264 260 250 248 248 250 250 252 252 253
Height
1526 1527 1528 1528 1529 1530 1531 1531 1532 1532 1533 1533 1533 1534 1534 1535 1535 1535 1536 1536 1536 1536 1536 1537 1536 1536 1537 1538 1538 1538 1538 1539 1539 1539 1538 1537 1536 1536 1536 1536 1536 1535 1535
1524 1525 1526 1526 1527 1528 1529 1530 1530 1531 1531 1531 1532 1533 1533 1534 1534 1534 1534 1535 1535 1535 1535 1535 1535 1535 1535 1536 1536 1536 1536 1536 1537 1537 1536 1536 1535 1534 1534 1534 1534 1534 1534
1523 1523 1524 1525 1526 1526 1528 1528 1529 1529 1530 1530 1531 1531 1532 1532 1532 1533 1533 1533 1533 1533 1533 1533 1534 1534 1534 1534 1534 1535 1535 1535 1535 1535 1535 1534 1534 1533 1532 1532 1532 1531 1531
1520 1521 1522 1523 1524 1525 1526 1526 1527 1527 1528 1529 1529 1530 1530 1530 1531 1531 1532 1532 1532 1532 1532 1532 1532 1532 1532 1532 1532 1532 1533 1533 1533 1533 1533 1533 1532 1531 1530 1530 1530 1529 1529
1518 1519 1519 1520 1521 1522 1523 1524 1525 1526 1527 1527 1528 1528 1529 1529 1530 1530 1530 1530 1530 1530 1530 1530 1530 1530 1530 1530 1531 1531 1531 1531 1531 1531 1531 1531 1530 1530 1529 1528 1528 1527 1526
1516 1517 1517 1518 1519 1520 1521 1522 1523 1524 1525 1526 1526 1527 1528 1528 1528 1528 1528 1529 1528 1528 1528 1528 1529 1528 1528 1528 1528 1528 1528 1528 1529 1529 1529 1529 1528 1528 1527 1526 1526 1525 1525
1513 1514 1515 1516 1517 1518 1519 1520 1521 1522 1523 1523 1524 1525 1525 1526 1526 1526 1526 1526 1527 1526 1526 1526 1528 1527 1526 1526 1525 1525 1525 1525 1525 1526 1526 1526 1526 1525 1525 1524 1523 1522 1521
1511 1512 1513 1514 1515 1516 1517 1518 1519 1519 1520 1521 1522 1522 1523 1523 1523 1524 1524 1524 1524 1524 1524 1524 1524 1524 1524 1523 1523 1523 1523 1523 1523 1523 1523 1523 1523 1522 1522 1521 1520 1519 1518
1508 1509 1510 1511 1512 1513 1514 1515 1516 1517 1518 1518 1519 1519 1520 1520 1521 1521 1521 1522 1522 1521 1521 1521 1521 1521 1521 1521 1521 1520 1520 1520 1520 1520 1520 1519 1519 1519 1519 1518 1518 1517 1516
1506 1507 1507 1508 1509 1510 1511 1512 1514 1514 1515 1516 1516 1516 1517 1517 1517 1517 1518 1519 1519 1519 1518 1518 1517 1517 1517 1517 1518 1518 1517 1517 1518 1517 1517 1516 1516 1515 1515 1515 1514 1514 1514
1502 1503 1504 1505 1506 1507 1508 1509 1510 1512 1513 1513 1513 1513 1513 1514 1514 1514 1514 1515 1516 1516 1516 1515 1515 1513 1513 1514 1514 1514 1514 1514 1514 1514 1514 1513 1513 1512 1511 1511 1510 1510 1510
1499 1500 1501 1502 1504 1505 1505 1506 1507 1508 1509 1509 1510 1510 1510 1510 1510 1510 1511 1511 1511 1512 1512 1512 1511 1510 1510 1510 1510 1510 1510 1510 1511 1511 1511 1510 1510 1509 1508 1507 1506 1506 1505
1496 1497 1498 1499 1500 1501 1502 1503 1504 1505 1506 1506 1507 1507 1507 1507 1507 1506 1507 1507 1507 1507 1507 1507 1507 1506 1506 1506 1506 1506 1506 1506 1507 1507 1507 1506 1506 1505 1504 1503 1502 1501 1501
1493 1493 1494 1495 1496 1497 1498 1499 1500 1501 1502 1502 1503 1503 1503 1503 1503 1503 1503 1502 1502 1502 1502 1502 1502 1502 1502 1502 1502 1502 1501 1502 1502 1502 1502 1502 1501 1501 1500 1499 1499 1498 1497
1490 1490 1491 1492 1492 1493 1494 1494 1495 1496 1497 1498 1499 1499 1499 1499 1499 1499 1499 1499 1498 1498 1498 1498 1498 1498 1498 1497 1498 1498 1497 1497 1497 1497 1497 1497 1496 1496 1495 1495 1494 1494 1494
1487 1487 1488 1489 1489 1490 1490 1490 1490 1491 1491 1492 1493 1493 1494 1494 1494 1494 1495 1495 1494 1494 1494 1494 1494 1494 1493 1493 1493 1493 1492 1492 1492 1492 1492 1492 1492 1491 1491 1490 1490 1490 1489
1484 1484 1485 1486 1486 1486 1486 1486 1486 1486 1486 1487 1487 1487 1487 1488 1489 1489 1490 1490 1489 1489 1489 1489 1489 1489 1489 1489 1489 1488 1488 1487 1486 1486 1487 1487 1487 1486 1486 1486 1485 1485 1484
1481 1481 1481 1482 1482 1482 1482 1482 1482 1481 1481 1481 1481 1481 1482 1482 1483 1484 1484 1484 1484 1483 1483 1484 1484 1484 1484 1484 1484 1483 1483 1482 1481 1481 1481 1481 1482 1482 1481 1481 1481 1480 1480
1478 1478 1478 1478 1478 1478 1478 1477 1477 1477 1477 1477 1477 1476 1476 1477 1477 1478 1478 1478 1479 1479 1479 1479 1479 1479 1479 1478 1478 1478 1478 1477 1477 1476 1476 1476 1477 1477 1477 1476 1476 1475 1475
1474 1473 1473 1474 1473 1473 1473 1473 1473 1473 1472 1472 1472 1472 1472 1472 1472 1472 1472 1472 1473 1473 1473 1473 1473 1473 1474 1474 1473 1473 1473 1473 1472 1472 1472 1472 1472 1472 1472 1471 1471 1471 1470
1470 1470 1469 1469 1469 1469 1468 1468 1468 1468 1468 1467 1467 1467 1467 1468 1468 1468 1468 1467 1467 1468 1468 1468 1468 1468 1468 1468 1468 1468 1468 1467 1467 1467 1467 1467 1467 1467 1467 1467 1467 1466 1466
1466 1466 1465 1465 1464 1464 1464 1463 1463 1463 1463 1463 1463 1463 1462 1463 1463 1463 1463 1462 1462 1463 1463 1462 1462 1462 1462 1462 1462 1462 1462 1462 1462 1462 1462 1462 1462 1462 1462 1462 1462 1462 1461
1462 1462 1461 1461 1460 1460 1459 1459 1459 1459 1459 1459 1459 1458 1458 1458 1458 1458 1458 1457 1457 1457 1457 1456 1457 1457 1457 1457 1457 1457 1456 1456 1457 1457 1457 1457 1457 1457 1457 1457 1456 1456 1456
1458 1458 1457 1456 1456 1455 1455 1455 1455 1454 1454 1454 1453 1453 1453 1452 1452 1452 1452 1452 1452 1451 1451 1451 1451 1451 1451 1451 1451 1451 1451 1451 1451 1451 1451 1451 1451 1451 1451 1451 1451 1451 1451
1454 1453 1453 1452 1451 1451 1451 1450 1450 1450 1450 1449 1449 1448 1448 1447 1447 1447 1447 1447 1447 1446 1446 1445 1445 1445 1445 1445 1445 1445 1444 1444 1445 1445 1445 1445 1445 1445 1445 1445 1445 1445 1446
1450 1449 1449 1448 1447 1447 1447 1447 1446 1446 1445 1445 1444 1443 1443 1442 1442 1442 1442 1442 1442 1441 1441 1441 1440 1439 1439 1439 1439 1438 1438 1438 1438 1438 1439 1439 1439 1439 1439 1439 1439 1440 1440